Weather in Sizaya

Russia / Krasnoyarsk Krai     53°00′09″N   91°31′00″E
temp.,
°C
wind,
m/s
gust,
m/s
humid.,
%
clouds,
%
prec.,
mm/h
press.,
hPa
HPBL,
m
25 january, mon
mon2501:00−16nw1398100 0.6 1037165
04:00−18wsw3684100 0.2 1038369
07:00−21wsw2585100 0.3 1041256
10:00−22w2683100 0.0 1044452
13:00−20w257399 0.0 1043705
16:00−20wsw257090 0.0 1043988
19:00−25s118376 0.0 104520
22:00−24s1184100 0.0 104321
26 january, tue
tue2601:00−24ssw1185100 0.0 104221
04:00−24sw0087100 0.0 104023
07:00−23nw01100100 0.3 104039
10:00−22nnw11100100 0.4 103981
13:00−20n1297100 0.9 1038214
16:00−20n1298100 0.4 1038206
19:00−24wnw01100100 0.6 104125
22:00−23wnw11100100 0.2 104249
27 january, wed
wed2701:00−24wsw1199100 0.3 104328
04:00−23ssw1196100 0.1 104427
07:00−22s1195100 0.1 104337
10:00−19s1293100 0.1 1042106
13:00−15s0194100 0.5 1038180
16:00−12ssw1294100 1.3 1035171
19:00−9ssw2493100 2.6 1034147
22:00−7sw3692100 1.4 1033402
28 january, thu
thu2801:00−6sw31092100 2.8 1033700
04:00−6sw3789100 0.9 1032334
07:00−6sw31089100 1.4 1032707
10:00−5sw31284100 0.3 10321049
13:00−4sw41477100 0.4 10301343
16:00−3wsw31185100 0.2 10291190
19:00−5sw31091100 1.1 1030672
22:00−5sw3692100 1.0 1029425
29 january, fri
fri2901:00−5ssw31186100 1.3 1028739
04:00−5sw2790100 0.3 1026422
07:00−4sw31588100 0.6 10251151
10:00−3sw41884100 0.4 10241512
13:00−2wsw61882100 1.0 10231585
16:00−2wsw51878100 0.4 10221542
19:00−3sw41384100 0.8 10231021
22:00−3wsw41586100 0.4 10221039